Regional Weather Roundup
Issued by NWS Little Rock, AR

Home | Current Version | Previous Version | Text Only | Print | Product List | Glossary On
Versions: 1 2 3 4 5 6 7 8 9 10 11 12 13 14 15 16 17 18 19 20 21 22 23 24 25 26 27 28 29 30 31 32 33 34 35 36 37 38 39 40 41 42 43 44 45 46
000
ASUS44 KLZK 212005
RWRLZK

WEATHER ROUNDUP FOR ARKANSAS
NATIONAL WEATHER SERVICE LITTLE ROCK AR
300 PM CDT SUN SEP 21 2014

NOTE: "FAIR" INDICATES FEW OR NO CLOUDS BELOW 12,000 FEET WITH NO
SIGNIFICANT WEATHER AND/OR OBSTRUCTIONS TO VISIBILITY.

ARZ001-003-010-029-212100-
NORTHWEST ARKANSAS

CITY           SKY/WX    TMP DP  RH WIND       PRES   REMARKS
FAYETTEVILLE   SUNNY     81  57  43 VRB7      30.11F
FORT SMITH     PTSUNNY   78  70  76 W6        30.06F
HARRISON       SUNNY     81  52  36 N10       30.10F
BENTONVILLE    SUNNY     79  48  34 N12       30.14F
ROGERS         SUNNY     78  48  34 N7        30.14F
SILOAM SPGS    SUNNY     79  54  41 NE12      30.13F
HIGHFILL       SUNNY     80  52  37 N12       30.12F
SPRINGDALE     MOSUNNY   79  54  41 NE13      30.14F
$$

ARZ004-005-016-212100-
NORTH CENTRAL ARKANSAS

CITY           SKY/WX    TMP DP  RH WIND       PRES   REMARKS
BATESVILLE     MOSUNNY   88  66  48 W8        30.01F HX  90
FLIPPIN        SUNNY     82  50  32 NW9       30.07S
MTN HOME       SUNNY     81  51  35 VRB6      30.06F
$$

ARZ040-041-212100-
WEST CENTRAL ARKANSAS

CITY           SKY/WX    TMP DP  RH WIND       PRES   REMARKS
MENA           PTSUNNY   88  70  55 CALM      30.08S HX  92
MOUNT IDA      CLOUDY    85  69  58 VRB3      30.04F HX  89
$$

ARZ009-017-025-026-028-212100-
NORTHEAST ARKANSAS

CITY           SKY/WX    TMP DP  RH WIND       PRES   REMARKS
CORNING        LGT RAIN  84  55  37 NW13G21   30.01S
JONESBORO      MOSUNNY   86  67  52 MISG      29.98F HX  89
NEWPORT        PTSUNNY   89  69  51 N10G16    30.00F HX  93
WALNUT RIDGE   SUNNY     84  63  48 NW13      29.99F HX  85
BLYTHEVILLE    MOSUNNY   88  71  57 NW6G20    29.97F HX  94
$$

ARZ022-023-033-042-044-212100-
CENTRAL ARKANSAS

CITY           SKY/WX    TMP DP  RH WIND       PRES   REMARKS
LITTLE ROCK    CLOUDY    86  67  52 NW10G21   30.02S HX  89
N LITTLE ROCK  PTSUNNY   82  73  72 NW8       30.02S HX  88
JACKSONVILLE   CLOUDY    85  71  62 W10       30.01F HX  90
SEARCY         PTSUNNY   85  70  60 W7        30.02S HX  89
HOT SPRINGS    PTSUNNY   88  68  51 N9        30.03F HX  91
RUSSELLVILLE   CLOUDY    77  74  90 NW3       30.05F
CLINTON        FAIR      84  72  65 NW6G16    30.04F HX  89
$$

ARZ036-212100-
EAST ARKANSAS

CITY           SKY/WX    TMP DP  RH WIND       PRES   REMARKS
WEST MEMPHIS   PTSUNNY   89  71  55 NW10      29.96F HX  95
$$

ARZ050-053-066-070-073-212100-
SOUTHWEST ARKANSAS

CITY           SKY/WX    TMP DP  RH WIND       PRES   REMARKS
ARKADELPHIA    FAIR      90  71  53 W8        30.02S HX  96
CAMDEN         MOSUNNY   93  66  40 NW7       30.00F HX  96
TEXARKANA      SUNNY     91  67  44 VRB6      30.02F HX  94
EL DORADO      MOSUNNY   90  67  46 NW6       30.02F HX  93
DE QUEEN       PTSUNNY   84  70  62 NW3       30.01F HX  88
$$

ARZ056-057-069-212100-
SOUTHEAST ARKANSAS

CITY           SKY/WX    TMP DP  RH WIND       PRES   REMARKS
PINE BLUFF     PTSUNNY   87  67  51 NW14      30.00F HX  90
STUTTGART      CLOUDY    88  70  55 W10       30.00S HX  92
MONTICELLO     MOSUNNY   92  64  39 W7        29.99F HX  93

$$




USA.gov is the U.S. government's official web portal to all federal, state and local government web resources and services.